Weather Roundup
Issued by NWS Springfield, MO

Home | Current Version | Previous Version | Text Only | Print | Product List | Glossary On
Versions: 1 2 3 4 5 6 7 8 9 10 11 12 13 14 15 16 17 18 19 20 21 22 23 24 25 26 27 28 29 30 31 32 33 34 35 36 37 38 39 40 41 42 43 44 45 46 47 48 49 50
000
NZUS99 KSGF 212307
HRRSGF

HOURLY WEATHER
NATIONAL WEATHER SERVICE SPRINGFIELD MO
500 PM CST SUN JAN 21 2018

......SGF CWA......

CITY           SKY/WX    TMP DP  RH WIND       PRES   REMARKS
SPRINGFIELD    PTCLDY    66  54  65 S13       29.73F
JOPLIN         RAIN      62  59  90 S13G25    29.69F FOG
WEST PLAINS    CLOUDY    60  56  86 S9G20     29.85S
ROLLA          CLOUDY    63  55  75 S12       29.80R
OSAGE BEACH    CLOUDY    68  53  58 S12       29.76S
BRANSON        MOCLDY    63  55  77 SE12G20   29.79F

......SURROUNDING SGF CWA......

CITY           SKY/WX    TMP DP  RH WIND       PRES   REMARKS
CHANUTE        MOCLDY    66  54  65 S14       29.62F
PARSONS        MOCLDY    67  55  65 S10       29.62F
COFFEYVILLE    PTCLDY    69  54  58 S24G32    29.62F
EMPORIA        MOCLDY    61  50  67 S15       29.59F
GROVE OK       RAIN      63  59  88 S8        29.71S
ROGERS AR      CLOUDY    62  57  83 S16       29.74S
SILOAM SPRINGS CLOUDY    62  58  86 S13       29.72S
HARRISON AR    CLOUDY    61  56  83 S13       29.80F
NEAR YELLVILLE CLOUDY    64  57  78 S8G18     29.83S

......KANSAS AND MISSOURI......

CITY           SKY/WX    TMP DP  RH WIND       PRES   REMARKS
KANSAS CTY INT PTCLDY    60  49  66 SE9       29.63F
DOWNTOWN KC    CLEAR     65  50  58 SE5       29.63F
COLUMBIA       MOCLDY    65  52  62 S6        29.74S
SEDALIA        CLOUDY    67  52  58 S6        29.73S
ST JOSEPH      CLEAR     58  50  75 E7        29.64F
ST LOUIS       MOCLDY    64  54  69 S15G23    29.83R
SPIRIT OF STL  CLOUDY    64  55  72 S10G17    29.81R
KIRKSVILLE     CLOUDY    53  51  93 E7        29.75S
WICHITA        PTCLDY    61  42  49 SW10G18   29.59S
TOPEKA         CLOUDY    61  51  70 S6        29.61S
OLATHE         CLEAR     62  51  67 SE10      29.63F

......TENNESSEE......

CITY           SKY/WX    TMP DP  RH WIND       PRES   REMARKS
MEMPHIS        MOCLDY    66  54  65 S16       29.98F
NASHVILLE      FAIR      64  47  53 S12       30.07S

......ARKANSAS.......

CITY           SKY/WX    TMP DP  RH WIND       PRES   REMARKS
FAYETTEVILLE   LGT RAIN  62  60  93 S10G18    29.74F FOG
FT SMITH       CLOUDY    68  59  73 SE7       29.74F
LITTLE ROCK    CLOUDY    64  58  80 S17G24    29.90F

......OKLAHOMA.......

CITY           SKY/WX    TMP DP  RH WIND       PRES   REMARKS
TULSA          PTCLDY    70  55  59 S12       29.61F
PONCA CITY     CLEAR     66  44  45 SW14G21   29.61S
MCALESTER      CLOUDY    67  60  78 S10G21    29.70S
OKLAHOMA CITY  PTCLDY    68  35  29 SW21      29.64F

......IOWA............

CITY           SKY/WX    TMP DP  RH WIND       PRES   REMARKS
DES MOINES     FOG       41  40  96 NE8       29.76F VSB 1/8
QUAD CITIES    FOG       44  43  96 E8        29.83R VSB 1

......ILLINOIS........

CITY           SKY/WX    TMP DP  RH WIND       PRES   REMARKS
QUINCY         PTCLDY    58  51  78 E9        29.77S
CHICAGO        FOG       43  40  89 E6        29.90R VSB 1/4




USA.gov is the U.S. government's official web portal to all federal, state and local government web resources and services.